Location: Huesca
(42.1318°N, 0.4078°W)
Time: 16:52:49
(UTC+02:00)

Explorer 11/Cluster Stage 4 - All Passes

Search period start: 14 July 2024 00:00
Search period end: 24 July 2024 00:00
Orbit: 465 x 1215 km, 28.8° (Epoch: 13 July)

Date Brightness Start Highest point End Pass type
(mag) Time Alt. Az. Time Alt. Az. Time Alt. Az.
14 Jul - 14:02:42 10° S 14:03:07 10° S 14:03:32 10° SSE daylight
15 Jul - 13:44:54 10° S 13:45:17 10° S 13:45:39 10° S daylight
16 Jul - 13:26:54 10° S 13:27:26 10° S 13:27:58 10° S daylight
17 Jul - 13:08:47 10° SSW 13:09:34 11° S 13:10:20 10° SSE daylight
18 Jul - 12:50:38 10° SSW 12:51:41 11° S 12:52:43 10° SSE daylight
19 Jul - 10:46:01 10° S 10:46:47 10° S 10:47:31 10° SSE daylight
19 Jul - 12:32:26 10° SSW 12:33:47 11° S 12:35:06 10° SSE daylight
20 Jul - 10:27:04 10° SSW 10:28:50 12° S 10:30:30 10° SSE daylight
20 Jul - 12:14:12 10° SSW 12:15:52 12° S 12:17:27 10° SSE daylight
21 Jul - 10:08:25 10° SSW 10:10:51 14° S 10:13:06 10° SE daylight
21 Jul - 11:55:56 10° SW 11:57:55 13° S 11:59:47 10° SSE daylight
22 Jul - 09:49:50 10° SSW 09:52:51 15° S 09:55:34 10° SE daylight
22 Jul - 11:37:38 10° SW 11:39:57 14° S 11:42:05 10° SSE daylight
23 Jul - 07:45:45 10° S 07:47:29 11° SSE 07:49:08 10° SSE daylight
23 Jul - 09:31:16 10° SW 09:34:49 17° S 09:37:58 10° SE daylight
23 Jul - 11:19:17 10° SW 11:21:56 15° S 11:24:21 10° SSE daylight
